KA4JMC Weather Reports


Display with metric or nautical units.
time (UTC)temp
F
wind
direction
speed
MPH
gust
MPH
rain 1hr
in
rain 24hr
in
rain mn
in
humidity
%
barometer
mb
20260503190024 63 182 7.0 4.0 0.00 0.00 0.00 981.8
20260503185515 63 208 7.0 6.0 0.00 0.00 0.00 981.8
20260503185019 62 220 8.0 3.0 0.00 0.00 0.00 981.8
20260503184513 63 237 8.0 8.0 0.00 0.00 0.00 982.8
20260503184013 62 233 5.0 4.0 0.00 0.00 0.00 982.8
20260503183525 62 158 6.0 5.0 0.00 0.00 0.00 982.8
20260503183013 62 193 6.0 6.0 0.00 0.00 0.00 982.8
20260503182539 62 221 8.0 11.0 0.00 0.00 0.00 982.8
20260503182016 62 240 7.0 9.0 0.00 0.00 0.00 982.8
20260503181521 61 212 7.0 11.0 0.00 0.00 0.00 982.8
20260503181034 60 195 4.0 6.0 0.00 0.00 0.00 982.8
20260503180536 59 220 5.0 3.0 0.00 0.00 0.00 982.8
20260503180014 59 193 6.0 11.0 0.00 0.00 0.00 983.8
20260503175517 59 170 7.0 8.0 0.00 0.00 0.00 983.8
20260503175019 59 177 6.0 6.0 0.00 0.00 0.00 983.8
20260503174513 59 190 6.0 8.0 0.00 0.00 0.00 983.8
20260503174018 60 225 6.0 6.0 0.00 0.00 0.00 983.8
20260503173514 60 182 6.0 3.0 0.00 0.00 0.00 983.8
20260503173027 60 241 6.0 13.0 0.00 0.00 0.00 983.8
20260503172514 59 200 7.0 8.0 0.00 0.00 0.00 983.8
20260503172013 58 218 8.0 6.0 0.00 0.00 0.00 983.8
20260503171520 58 187 6.0 8.0 0.00 0.00 0.00 984.8
20260503171014 57 171 6.0 10.0 0.00 0.00 0.00 984.8
20260503170513 56 233 8.0 11.0 0.00 0.00 0.00 984.8
20260503150514 57 185 5.0 6.0 0.00 0.00 0.00 986.8
20260503131014 52 221 6.0 8.0 0.00 0.00 0.00 986.8
20260503130536 52 258 4.0 3.0 0.00 0.00 0.00 986.8
20260503110523 47 188 4.0 8.0 0.00 0.00 0.00 985.8
20260503081515 45 217 3.0 3.0 0.00 0.00 0.00 987.8
20260503081040 45 240 0.0 0.0 0.00 0.00 0.00 987.8
20260503080525 45 233 2.0 4.0 0.00 0.00 0.00 987.8
20260503072518 44 231 3.0 2.0 0.00 0.00 0.00 987.8
20260503072013 44 226 0.0 0.0 0.00 0.00 0.00 987.8
20260503071515 44 222 0.0 0.0 0.00 0.00 0.00 987.8
20260503071014 43 217 0.0 0.0 0.00 0.00 0.00 987.8
20260503070514 43 221 0.0 0.0 0.00 0.00 0.00 987.8
20260503055014 44 199 0.0 0.0 0.00 0.00 0.00 987.8
20260503054513 44 179 0.0 0.0 0.00 0.00 0.00 987.8
20260503054014 44 223 0.0 0.0 0.00 0.00 0.00 987.8
20260503053513 44 225 0.0 0.0 0.00 0.00 0.00 987.8
20260503053015 44 221 0.0 4.0 0.00 0.00 0.00 988.8
20260503052521 44 228 0.0 2.0 0.00 0.00 0.00 988.8
20260503052013 44 205 0.0 0.0 0.00 0.00 0.00 988.8
20260503051514 43 235 0.0 0.0 0.00 0.00 0.00 988.8
20260503051025 43 189 0.0 0.0 0.00 0.00 0.00 988.8
20260503050518 43 217 0.0 2.0 0.00 0.00 0.00 988.8
20260503050023 43 209 2.0 0.0 0.00 0.00 0.00 988.8
20260503045515 43 229 0.0 0.0 0.00 0.00 0.00 988.8
20260503045014 43 205 0.0 0.0 0.00 0.00 0.00 988.8
20260503044524 43 206 0.0 0.0 0.00 0.00 0.00 988.8
20260503044019 43 237 0.0 0.0 0.00 0.00 0.00 988.8
20260503043515 43 238 0.0 0.0 0.00 0.00 0.00 988.8
20260503043039 43 233 0.0 0.0 0.00 0.00 0.00 988.8
20260503042514 43 218 0.0 0.0 0.00 0.00 0.00 988.8
20260503042015 43 218 0.0 0.0 0.00 0.00 0.00 988.8
20260503041521 43 218 0.0 0.0 0.00 0.00 0.00 988.8
20260503041014 43 218 0.0 0.0 0.00 0.00 0.00 988.8
20260503040519 43 225 0.0 0.0 0.00 0.00 0.00 988.8
20260503040016 43 225 0.0 0.0 0.00 0.00 0.00 988.8
20260503035514 43 225 0.0 0.0 0.00 0.00 0.00 988.8
20260503035015 44 225 0.0 0.0 0.00 0.00 0.00 988.8
20260503034516 44 225 0.0 0.0 0.00 0.00 0.00 988.8
20260503034013 44 225 0.0 0.0 0.00 0.00 0.00 988.8
20260503033514 44 225 0.0 0.0 0.00 0.00 0.00 988.8
20260503033020 44 225 0.0 0.0 0.00 0.00 0.00 988.8
20260503032525 44 211 0.0 0.0 0.00 0.00 0.00 988.8
20260503032013 44 210 0.0 0.0 0.00 0.00 0.00 988.8
20260503031516 44 213 0.0 0.0 0.00 0.00 0.00 989.8
20260503031013 45 212 0.0 0.0 0.00 0.00 0.00 989.8
20260503030513 45 207 0.0 0.0 0.00 0.00 0.00 989.8
20260503030036 45 207 0.0 0.0 0.00 0.00 0.00 989.8
20260503025513 45 207 0.0 0.0 0.00 0.00 0.00 989.8
20260503025015 45 207 0.0 0.0 0.00 0.00 0.00 989.8
20260503024517 45 216 0.0 0.0 0.00 0.00 0.00 989.8
20260503024042 45 216 0.0 0.0 0.00 0.00 0.00 989.8
20260503023514 45 216 0.0 0.0 0.00 0.00 0.00 989.8
20260503023021 45 240 0.0 0.0 0.00 0.00 0.00 989.8
20260503022513 45 240 0.0 0.0 0.00 0.00 0.00 989.8
20260503022013 45 240 0.0 0.0 0.00 0.00 0.00 989.8
20260503021517 46 240 0.0 0.0 0.00 0.00 0.00 989.8
20260503021015 46 240 0.0 0.0 0.00 0.00 0.00 989.8
20260503020516 46 240 0.0 0.0 0.00 0.00 0.00 989.8
20260503020014 46 240 0.0 0.0 0.00 0.00 0.00 989.8
20260503015539 46 240 0.0 0.0 0.00 0.00 0.00 989.8
20260503015014 46 240 0.0 0.0 0.00 0.00 0.00 989.8
20260503014514 47 240 0.0 0.0 0.00 0.00 0.00 989.8
20260503014018 47 240 0.0 0.0 0.00 0.00 0.00 989.8
20260503013517 47 240 0.0 0.0 0.00 0.00 0.00 989.8
20260503013013 47 240 0.0 0.0 0.00 0.00 0.00 989.8
20260503012515 48 240 0.0 0.0 0.00 0.00 0.00 989.8
20260503012014 48 241 0.0 0.0 0.00 0.00 0.00 989.8
20260503011513 48 241 0.0 0.0 0.00 0.00 0.00 989.8
20260503011013 48 241 0.0 0.0 0.00 0.00 0.00 989.8
20260503010517 48 241 0.0 0.0 0.00 0.00 0.00 989.8
20260503010015 49 241 0.0 0.0 0.00 0.00 0.00 989.8
20260503005523 49 240 0.0 0.0 0.00 0.00 0.00 989.8
20260503005013 49 240 0.0 0.0 0.00 0.00 0.00 989.8
20260503004515 50 240 0.0 0.0 0.00 0.00 0.00 989.8
20260503004020 50 240 0.0 0.0 0.00 0.00 0.00 989.8
20260503003516 50 240 0.0 0.0 0.00 0.00 0.00 989.8
20260503003015 51 240 0.0 0.0 0.00 0.00 0.00 989.8
20260503002517 51 247 0.0 0.0 0.00 0.00 0.00 989.8
20260503002040 51 248 0.0 0.0 0.00 0.00 0.00 989.8
20260503001515 51 197 0.0 5.0 0.00 0.00 0.00 989.8
20260503001013 52 236 0.0 0.0 0.00 0.00 0.00 989.8
20260503000535 52 210 0.0 0.0 0.00 0.00 0.00 989.8
20260503000035 52 243 0.0 0.0 0.00 0.00 0.00 989.8
20260502235518 52 256 3.0 0.0 0.00 0.00 0.00 989.8
20260502235015 53 243 0.0 0.0 0.00 0.00 0.00 989.8
20260502234536 53 306 0.0 0.0 0.00 0.00 0.00 990.8
20260502234013 53 250 3.0 2.0 0.00 0.00 0.00 990.8
20260502233513 53 201 2.0 0.0 0.00 0.00 0.00 990.8
20260502233015 53 205 0.0 2.0 0.00 0.00 0.00 990.8
20260502232513 53 209 3.0 5.0 0.00 0.00 0.00 990.8
20260502232014 53 238 4.0 4.0 0.00 0.00 0.00 990.8
20260502231514 53 204 4.0 3.0 0.00 0.00 0.00 989.8
20260502231014 53 211 3.0 3.0 0.00 0.00 0.00 989.8
20260502230514 53 173 0.0 0.0 0.00 0.00 0.00 989.8
20260502230014 53 262 2.0 3.0 0.00 0.00 0.00 990.8
20260502225513 54 173 0.0 0.0 0.00 0.00 0.00 990.8
20260502225013 54 311 0.0 2.0 0.00 0.00 0.00 990.8
20260502224518 54 328 0.0 0.0 0.00 0.00 0.00 990.8
20260502224017 54 341 2.0 3.0 0.00 0.00 0.00 990.8
20260502223535 54 232 0.0 2.0 0.00 0.00 0.00 990.8
20260502223015 55 268 0.0 0.0 0.00 0.00 0.00 990.8
20260502222514 55 230 0.0 0.0 0.00 0.00 0.00 990.8
20260502222013 55 270 0.0 4.0 0.00 0.00 0.00 990.8
20260502221517 55 341 0.0 3.0 0.00 0.00 0.00 990.8
20260502221034 55 258 0.0 3.0 0.00 0.00 0.00 990.8
20260502220515 55 212 3.0 4.0 0.00 0.00 0.00 990.8
20260502220015 55 235 2.0 5.0 0.00 0.00 0.00 990.8
20260502215515 54 206 0.0 0.0 0.00 0.00 0.00 990.8
20260502215015 54 219 3.0 4.0 0.00 0.00 0.00 990.8
20260502214513 54 273 0.0 0.0 0.00 0.00 0.00 990.8
20260502214013 55 225 4.0 4.0 0.00 0.00 0.00 990.8
20260502213520 55 313 0.0 0.0 0.00 0.00 0.00 990.8
20260502213013 55 292 0.0 0.0 0.00 0.00 0.00 990.8
20260502212513 55 217 4.0 5.0 0.00 0.00 0.00 990.8
20260502212013 54 340 0.0 0.0 0.00 0.00 0.00 990.8
20260502211513 54 258 0.0 0.0 0.00 0.00 0.00 990.8
20260502211013 54 255 0.0 6.0 0.00 0.00 0.00 990.8
20260502210519 54 220 0.0 5.0 0.00 0.00 0.00 990.8
20260502210014 54 343 2.0 5.0 0.00 0.00 0.00 990.8
20260502205514 54 318 0.0 3.0 0.00 0.00 0.00 990.8
20260502205018 54 231 0.0 0.0 0.00 0.00 0.00 990.8
20260502204514 54 224 0.0 3.0 0.00 0.00 0.00 991.8
20260502204014 54 333 0.0 3.0 0.00 0.00 0.00 991.8
20260502203513 54 229 5.0 4.0 0.00 0.00 0.00 991.8
20260502203015 54 195 0.0 4.0 0.00 0.00 0.00 991.8
20260502202515 54 175 0.0 0.0 0.00 0.00 0.00 991.8
20260502202013 55 228 0.0 0.0 0.00 0.00 0.00 991.8
20260502201513 55 232 0.0 0.0 0.00 0.00 0.00 991.8
20260502201013 55 318 0.0 0.0 0.00 0.00 0.00 991.8
20260502200513 55 221 2.0 0.0 0.00 0.00 0.00 991.8
20260502200015 56 288 0.0 0.0 0.00 0.00 0.00 991.8
20260502195518 55 26 0.0 0.0 0.00 0.00 0.00 991.8
20260502195013 55 291 2.0 3.0 0.00 0.00 0.00 991.8
20260502194514 55 334 5.0 3.0 0.00 0.00 0.00 991.8
20260502193513 56 103 0.0 4.0 0.00 0.00 0.00 991.8
20260502193016 56 19 3.0 3.0 0.00 0.00 0.00 992.8
20260502192513 55 263 2.0 0.0 0.00 0.00 0.00 992.8
20260502192013 55 343 0.0 0.0 0.00 0.00 0.00 992.8
20260502191519 54 301 0.0 2.0 0.00 0.00 0.00 992.8
20260502191013 54 341 0.0 0.0 0.00 0.00 0.00 992.8
20260502190517 54 353 0.0 0.0 0.00 0.00 0.00 992.8